Regional Weather Roundup
Issued by NWS Albany, NY

Home | Current Version | Previous Version | Text Only | Print | Product List | Glossary On
Versions: 1 2 3 4 5 6 7 8 9 10 11 12 13 14 15 16 17 18 19 20 21 22 23 24 25 26 27 28 29 30 31 32 33 34 35 36 37 38 39 40 41 42 43 44 45 46 47 48 49 50
000
ASUS41 KALY 060410
RWRALY

NEW YORK STATE HOURLY WEATHER ROUNDUP
NATIONAL WEATHER SERVICE ALBANY NY
1100 PM EST FRI FEB 05 2016

NOTE: "FAIR" INDICATES FEW OR NO CLOUDS BELOW 12,000 FEET WITH NO
SIGNIFICANT WEATHER AND/OR NO OBSTRUCTIONS TO VISIBILITY.

NYZ032-033-038>043-046>054-057>066-NYZ062>081-060500-
EAST


CITY           SKY/WX    TMP DP  RH WIND       PRES   REMARKS
ALBANY         PTCLDY    26  12  55 NW6       30.31R WCI  19
GLENS FALLS    CLEAR     23  12  62 CALM      30.28R
POUGHKEEPSIE   CLEAR     32  12  43 VRB3      30.31R
NEWBURGH       CLEAR     28  18  64 NW7       30.30R WCI  21
MONTGOMERY     CLEAR     28  15  58 CALM      30.30R
WHITE PLAINS   CLEAR     31  14  49 NW15      30.28R WCI  20
ISLIP          CLEAR     27  16  63 NW6       30.29R WCI  20
NEW YORK CITY  CLEAR     34  18  52 NW16G23   30.32R WCI  24
CENTRAL PARK   CLEAR     33  14  45 VRB5      30.34S WCI  29
$$

NYZ005>009-017-018-044>046-055-056-060500-
CENTRAL


CITY           SKY/WX    TMP DP  RH WIND       PRES   REMARKS
FULTON         CLOUDY    32  22  66 W9        30.30S WCI  24
SYRACUSE       CLOUDY    29  21  72 SW9       30.30S WCI  20
ROME           CLOUDY    25  18  74 CALM      30.32S
ELMIRA         CLEAR     23  17  78 SW6       30.31S WCI  16
BINGHAMTON     CLOUDY    24  17  74 W5        30.25S WCI  18
MONTICELLO     CLEAR     23  16  74 W8        30.27S WCI  14
$$

NYZ026>034-041>043-060500-
NORTH


CITY           SKY/WX    TMP DP  RH WIND       PRES   REMARKS
WATERTOWN      MOCLDY    24  20  84 S3        30.27S
FORT DRUM      NOT AVBL
MASSENA        CLOUDY    19  14  81 SW6       30.25F WCI  11
SARANAC LAKE   CLEAR     11   8  88 CALM      30.16S
PLATTSBURGH    CLEAR     24  11  57 CALM      30.24S
$$

NYZ001>004-010>016-019>021-060500-
WEST


CITY           SKY/WX    TMP DP  RH WIND       PRES   REMARKS
NIAGARA FALLS  CLOUDY    32  24  72 SW9       30.28F WCI  24
BUFFALO        CLOUDY    28  20  71 S8        30.29F WCI  20
DUNKIRK        CLEAR     27  16  63 S12       30.30F WCI  17
JAMESTOWN      CLEAR     21  12  68 S5        30.25F WCI  15
WELLSVILLE     CLEAR     22  13  68 CALM      30.25F
ROCHESTER      MOCLDY    27  21  78 SW7       30.30F WCI  19
PENN YAN       CLEAR     28  18  66 SW10      30.29F WCI  19
$$

             KEY
       WCI = WIND CHILL INDEX
       VSB = VISIBILITY
       HX  = HEAT INDEX
$$



USA.gov is the U.S. government's official web portal to all federal, state and local government web resources and services.